Wind_Speed
15 13 14 17 22 22 23 22 21 21 19 20 21 19 15 15 18 20 23 26 27 27 26 26 25 24 22 21 21 21 22 22 23 22 22 21 20 20 20 22 21 20 19 16 14 14 15 17 17
17 14 15 16 20 19 19 20 19 18 19 21 22 23 20 20 22 25 27 29 29 29 26 25 26 26 24 22 22 22 23 24 24 23 22 21 21 20 20 21 22 22 20 19 15 14 14 16 18
16 15 16 18 22 21 19 18 19 16 17 20 21 24 24 26 29 31 30 30 31 30 29 28 27 27 26 23 24 24 25 24 25 24 23 22 22 23 23 23 22 23 22 20 17 15 15 15 16
16 15 16 19 22 22 20 20 19 20 21 22 24 27 29 30 31 27 27 31 30 29 30 31 30 28 27 26 25 25 26 26 26 26 25 24 24 24 25 25 25 25 24 23 19 18 18 17 16
17 18 19 19 22 22 22 21 23 23 25 27 29 30 31 31 29 26 28 32 31 28 29 29 30 30 27 27 29 29 29 30 30 29 29 28 28 27 27 27 27 27 27 26 25 20 20 19 17
21 20 21 23 23 23 23 25 25 26 27 29 30 33 32 30 31 29 28 27 26 25 27 27 26 27 27 27 27 29 31 31 30 30 31 32 32 31 30 30 29 29 28 27 27 25 22 20 18
25 25 25 27 26 25 26 26 27 28 28 28 30 34 33 31 29 26 26 25 22 21 21 24 27 28 28 29 30 29 30 30 29 30 30 30 30 30 31 32 32 31 31 30 29 29 26 23 19
26 29 29 28 28 27 28 30 30 31 30 29 31 31 30 31 28 26 26 25 24 23 23 24 26 30 32 32 32 33 32 30 30 30 31 31 31 31 30 29 31 32 33 32 30 31 30 26 21
28 28 30 30 30 29 31 32 34 34 33 31 30 29 30 31 29 27 28 28 29 28 28 28 31 32 32 33 32 33 34 35 34 34 35 35 35 36 35 33 30 31 33 34 33 31 32 30 26
27 29 32 31 31 32 32 33 33 33 31 32 34 32 30 31 30 30 31 30 32 33 33 30 29 31 31 31 32 33 35 37 38 37 37 37 37 38 38 37 36 32 31 34 36 33 32 33 29
27 29 31 32 32 35 33 33 32 28 29 33 34 35 32 30 30 30 30 29 28 29 31 30 30 32 33 34 33 33 34 34 36 37 36 35 36 38 39 40 38 38 34 33 35 35 33 32 31
32 31 32 32 33 36 36 35 34 30 31 35 34 33 31 28 28 28 28 26 28 30 27 27 28 27 26 26 27 29 32 35 37 38 39 37 36 36 37 39 41 41 40 35 35 36 36 34 29
32 32 30 31 33 34 35 35 36 36 33 32 31 29 28 27 26 26 27 27 30 30 26 24 24 22 24 27 29 31 33 35 37 40 43 43 41 38 38 39 39 40 42 41 37 36 37 37 33
28 28 30 31 31 32 33 35 33 33 34 31 30 29 29 28 25 25 25 27 28 26 22 23 25 27 28 29 30 31 32 32 34 38 41 44 44 42 41 40 41 41 42 44 43 39 38 38 37
24 25 27 28 29 29 34 34 26 37 33 31 31 32 31 28 26 24 24 26 26 24 25 25 28 30 30 29 29 30 31 31 33 35 38 41 45 46 45 43 43 43 44 45 47 45 42 40 40
25 24 24 26 27 28 28 23 29 35 36 34 31 28 27 27 26 24 26 27 28 28 27 28 30 29 29 30 30 30 32 33 35 37 40 43 44 44 46 46 47 47 46 46 47 48 49 44 42
26 25 26 28 27 26 24 21 30 34 32 31 27 27 28 27 23 25 28 30 31 31 30 31 31 31 31 32 32 34 35 37 40 41 42 44 47 50 51 51 52 52 52 51 49 49 50 51 45
32 32 27 28 27 26 24 20 28 30 29 28 28 28 28 24 23 28 30 32 33 32 31 31 32 33 34 35 35 37 37 38 39 43 47 50 51 52 53 56 59 59 58 58 58 56 53 51 50
30 31 26 23 27 30 23 25 30 30 32 31 32 32 30 25 23 28 28 32 31 31 33 32 32 34 38 41 41 39 39 40 42 44 48 50 54 55 62 59 64 64 68 64 63 63 62 57 54
33 33 25 26 31 33 30 28 32 33 34 33 35 33 31 29 28 28 29 33 31 34 36 35 35 37 39 42 44 48 45 42 41 44 48 55 58 62 65 67 69 79 79 74 71 70 68 66 60
31 32 28 32 33 34 34 36 35 33 34 36 37 36 35 36 35 31 31 36 33 37 39 38 41 43 43 43 46 46 46 45 45 48 49 53 56 62 69 75 74 64 58 56 70 80 75 71 69
35 31 34 37 38 37 36 37 36 38 37 37 36 38 40 42 41 39 35 37 37 40 40 42 43 45 46 45 44 43 45 46 46 48 51 50 57 67 73 67 57 58 60 56 55 57 81 76 74
40 37 39 38 39 41 42 44 38 40 41 36 37 40 42 43 44 43 41 40 40 42 42 45 47 48 48 47 46 43 44 46 47 48 49 53 62 65 68 57 55 48 46 46 46 52 59 75 81
47 48 45 44 43 44 44 46 41 46 44 44 42 39 41 44 45 45 45 44 46 46 45 46 48 49 48 45 44 44 47 49 49 51 51 55 62 64 61 54 48 46 44 46 49 50 53 62 81
50 51 50 50 51 50 47 47 45 50 49 49 47 45 42 44 45 45 45 46 46 47 48 50 49 50 48 45 44 46 49 49 49 51 53 56 61 62 53 53 47 49 50 44 49 52 55 61 68
45 48 51 54 53 51 48 54 53 52 53 51 52 51 48 46 46 46 48 47 49 50 50 49 50 51 49 44 46 48 49 48 50 52 55 57 59 60 52 47 43 46 54 53 55 58 63 69 68
47 51 47 48 51 54 57 56 55 54 55 56 54 52 52 49 48 49 49 49 49 48 49 50 53 54 47 47 48 49 50 51 51 53 53 54 55 56 51 48 42 47 43 48 53 60 62 72 78
50 48 49 50 53 55 57 55 54 52 52 52 50 48 48 48 47 47 48 50 49 50 51 54 57 54 49 50 49 50 52 52 51 52 51 52 52 55 55 44 45 47 49 47 48 49 51 53 77
52 52 53 52 51 54 56 56 54 52 50 50 50 52 53 52 49 50 52 51 51 53 55 57 57 55 51 52 51 53 54 52 52 51 51 52 52 54 57 47 47 46 41 45 44 41 40 40 52
49 48 48 51 53 53 49 55 55 54 51 49 48 51 54 49 47 48 50 53 54 57 58 59 60 55 52 53 54 55 54 53 52 50 51 52 52 54 54 49 44 47 44 44 49 38 35 35 43
Wind_Direction
271 276 279 277 268 267 265 266 267 263 263 264 262 253 251 247 265 276 278 286 291 295 296 296 296 294 294 295 294 293 293 293 294 299 304 310 317 322 321 325 322 318 310 295 286 282 285 291 291
273 270 270 269 273 271 269 270 273 271 261 253 251 252 246 251 259 265 270 273 275 282 284 286 290 292 290 289 289 287 288 289 290 291 296 301 309 314 316 318 319 315 309 301 286 278 282 291 294
271 268 267 267 270 273 276 280 280 277 263 258 251 240 239 243 248 250 258 268 276 281 281 281 281 282 281 282 284 285 284 285 283 285 289 296 302 307 310 311 311 310 307 301 290 277 274 283 294
262 263 263 265 270 276 278 280 278 277 274 268 263 253 257 265 266 269 271 274 275 275 278 280 281 283 283 285 283 280 279 281 281 283 287 291 295 299 303 307 308 306 304 300 289 282 272 275 287
267 266 262 261 265 271 276 276 280 275 272 270 269 265 268 280 283 276 272 274 281 282 282 284 287 290 287 283 282 283 287 289 290 290 293 293 295 297 299 301 304 303 301 299 293 281 276 276 282
258 257 262 266 266 271 273 274 272 270 272 277 278 278 282 289 294 284 276 276 280 284 287 291 291 288 287 286 281 281 283 288 293 297 299 300 299 300 300 299 298 298 298 294 293 286 276 274 280
256 254 256 263 265 267 271 271 272 271 269 269 272 275 280 284 290 279 275 274 276 282 286 290 293 291 287 286 285 285 283 284 288 290 291 293 296 298 298 298 297 295 294 293 290 287 280 274 277
262 260 258 261 267 271 273 278 278 276 272 269 271 276 281 284 286 283 279 284 288 290 293 290 284 283 284 285 286 287 288 287 285 286 288 289 288 290 292 292 293 294 291 288 287 285 282 275 271
260 261 259 258 263 266 270 272 275 279 280 283 280 278 284 288 293 291 286 289 287 286 287 288 287 285 285 287 290 290 290 291 289 288 289 287 289 289 287 285 285 287 288 287 284 282 282 277 271
257 255 256 256 255 260 265 269 275 280 286 284 284 284 283 287 294 296 295 290 286 282 277 276 283 289 293 290 288 289 292 293 292 290 290 289 287 286 286 284 281 280 280 282 280 277 276 278 273
250 252 256 258 259 260 259 259 266 274 279 276 279 284 287 290 292 290 288 287 287 282 277 281 286 288 288 289 289 289 289 289 289 290 289 289 286 283 283 281 279 278 275 273 275 273 269 272 274
259 254 255 259 261 265 269 272 267 262 260 266 273 279 282 284 286 286 286 285 281 282 285 287 287 287 287 289 292 295 297 298 298 296 293 289 286 284 282 280 278 277 277 272 271 271 268 266 268
260 259 257 257 260 262 264 267 271 270 271 274 275 276 280 282 282 283 281 282 282 283 283 285 285 287 289 288 290 291 292 294 296 296 294 292 289 286 282 280 276 276 275 274 270 265 264 263 262
265 264 264 262 262 263 267 264 265 273 273 276 276 276 278 281 278 278 279 279 278 280 282 282 287 288 287 286 288 293 297 293 285 284 289 292 291 288 284 281 279 276 273 272 271 266 261 257 259
260 260 260 262 261 265 264 264 269 269 275 274 272 276 278 274 270 269 269 267 267 271 279 285 283 279 279 285 294 300 302 303 305 300 290 285 287 289 287 282 278 275 273 270 272 270 264 257 255
255 257 260 257 257 257 263 263 264 268 272 272 272 269 268 270 270 269 266 267 270 274 276 272 270 273 282 289 296 298 301 304 304 299 294 291 287 283 283 282 280 277 273 270 268 269 269 265 254
254 256 253 249 255 263 259 256 257 262 272 275 271 264 262 262 265 271 272 273 275 276 271 271 269 278 286 293 296 298 299 300 302 303 294 288 287 287 284 281 281 278 275 273 269 267 267 266 263
244 246 253 260 264 260 264 258 250 258 265 268 270 268 264 264 269 269 271 272 272 273 272 275 276 281 286 292 294 295 297 298 300 300 297 293 289 286 286 283 281 279 275 271 269 266 263 263 263
255 258 258 258 260 260 251 248 254 259 262 266 266 266 270 269 261 264 266 267 270 275 276 277 283 287 291 291 292 293 298 297 301 297 295 287 288 286 287 284 279 274 273 269 265 264 263 259 259
264 262 257 251 255 256 252 247 250 257 262 263 264 267 270 270 269 270 270 270 274 275 278 284 287 288 291 291 292 291 295 292 293 295 288 292 288 289 293 288 283 279 271 263 261 258 257 257 254
264 268 266 259 254 256 254 257 258 256 254 259 265 271 275 273 276 274 271 273 277 280 283 288 290 292 292 293 293 292 294 293 296 297 292 292 296 295 298 295 290 282 276 270 261 251 251 250 251
260 265 263 262 262 261 260 255 253 255 254 261 269 275 274 272 276 280 280 279 281 281 284 286 289 292 293 291 290 291 292 295 294 296 300 298 299 303 303 298 286 282 277 271 263 262 248 244 246
261 259 261 260 263 263 262 261 259 257 259 262 266 269 271 273 277 281 283 282 282 282 287 288 287 287 288 290 289 293 296 296 296 298 304 300 305 306 307 293 289 276 275 274 266 261 256 249 243
260 264 265 264 263 260 263 264 262 264 266 266 269 270 269 272 277 279 282 285 285 285 286 283 282 283 286 288 292 297 298 297 298 301 303 303 304 307 306 297 288 274 274 269 269 265 259 252 245
259 263 267 266 262 264 264 264 267 267 269 271 274 274 273 274 275 278 279 280 282 285 286 284 283 283 287 290 294 296 296 299 300 299 301 302 305 311 303 299 284 276 272 268 269 269 264 257 246
262 257 258 261 263 263 260 262 265 265 265 269 274 276 276 275 276 276 277 278 282 285 284 284 283 284 289 291 292 295 295 297 297 298 298 304 308 315 308 303 283 283 280 282 275 269 262 255 248
256 258 263 263 262 263 262 261 262 266 269 271 272 272 272 273 272 274 276 280 284 285 285 284 284 286 289 288 292 294 295 296 296 296 299 305 311 317 311 307 286 286 283 294 283 281 265 249 243
249 255 257 258 260 263 266 268 270 269 270 269 269 267 269 272 272 273 276 280 283 283 283 284 284 287 288 289 293 293 293 294 294 295 300 304 310 316 320 312 296 294 287 290 291 284 277 260 237
252 252 257 261 262 266 268 267 267 267 269 270 271 270 270 271 272 272 274 277 280 282 283 286 286 284 286 290 293 293 294 293 292 295 300 303 309 314 318 312 309 295 293 296 294 292 279 263 234
259 258 256 253 255 259 268 261 265 269 272 274 274 272 268 267 268 270 272 274 279 283 284 286 284 283 287 291 292 293 292 290 290 295 299 302 308 313 317 314 312 292 302 300 299 294 276 258 238
Height
5853 5853 5853 5852 5853 5852 5852 5853 5854 5855 5856 5857 5857 5858 5859 5859 5859 5860 5858 5858 5857 5855 5853 5853 5853 5852 5852 5851 5850 5848 5846 5845 5844 5842 5841 5840 5838 5837 5835 5833 5831 5830 5830 5828 5827 5827 5827 5827 5827
5851 5850 5849 5848 5847 5848 5850 5850 5852 5854 5855 5854 5854 5855 5855 5855 5856 5856 5855 5853 5852 5852 5852 5851 5850 5850 5850 5848 5847 5845 5843 5842 5841 5840 5839 5838 5836 5835 5834 5832 5830 5829 5828 5827 5825 5825 5824 5824 5825
5848 5847 5847 5844 5843 5844 5847 5849 5849 5852 5852 5851 5851 5851 5851 5851 5850 5850 5850 5849 5850 5849 5848 5847 5847 5846 5845 5844 5842 5841 5840 5838 5838 5836 5836 5835 5834 5833 5832 5830 5828 5826 5826 5825 5823 5822 5822 5821 5821
5843 5845 5844 5842 5840 5842 5845 5845 5848 5848 5848 5849 5848 5848 5848 5846 5847 5850 5849 5847 5847 5847 5844 5843 5843 5843 5842 5842 5840 5838 5836 5835 5834 5833 5833 5832 5831 5830 5829 5828 5827 5825 5824 5822 5821 5820 5820 5819 5818
5840 5841 5840 5838 5837 5838 5840 5842 5842 5844 5844 5844 5844 5844 5844 5845 5845 5846 5845 5842 5842 5842 5841 5841 5839 5838 5839 5838 5836 5836 5835 5834 5833 5832 5830 5829 5828 5828 5827 5825 5824 5823 5821 5820 5818 5817 5816 5816 5815
5836 5836 5836 5834 5835 5835 5836 5837 5838 5839 5839 5839 5839 5839 5840 5841 5842 5842 5840 5839 5839 5838 5836 5835 5835 5835 5834 5833 5833 5832 5831 5830 5830 5829 5827 5827 5826 5825 5823 5822 5820 5819 5818 5817 5815 5814 5813 5812 5812
5832 5832 5831 5829 5831 5832 5832 5832 5833 5834 5835 5834 5834 5833 5836 5837 5837 5837 5836 5836 5836 5834 5833 5832 5830 5829 5829 5828 5827 5827 5826 5825 5824 5823 5822 5821 5820 5819 5819 5818 5817 5815 5814 5814 5812 5811 5810 5809 5808
5827 5827 5826 5826 5826 5828 5828 5826 5827 5828 5829 5829 5828 5829 5831 5830 5832 5831 5831 5831 5831 5830 5828 5828 5827 5825 5823 5823 5822 5822 5821 5820 5819 5818 5817 5816 5814 5813 5813 5813 5812 5811 5810 5809 5808 5807 5806 5805 5805
5821 5822 5821 5821 5822 5822 5821 5822 5820 5820 5822 5824 5823 5822 5823 5823 5825 5825 5825 5825 5825 5826 5824 5821 5819 5819 5819 5818 5818 5817 5815 5814 5813 5812 5811 5810 5808 5808 5807 5806 5806 5805 5804 5804 5803 5802 5802 5801 5801
5817 5816 5815 5816 5816 5817 5817 5816 5815 5816 5816 5817 5815 5816 5818 5818 5819 5819 5818 5818 5818 5817 5816 5815 5814 5813 5813 5813 5812 5810 5809 5807 5806 5805 5804 5803 5802 5801 5800 5800 5799 5799 5798 5798 5797 5796 5796 5796 5797
5810 5810 5810 5812 5812 5811 5811 5809 5808 5809 5809 5808 5810 5811 5812 5813 5812 5813 5813 5812 5810 5808 5807 5808 5809 5809 5807 5806 5804 5803 5801 5800 5798 5797 5797 5796 5795 5794 5793 5793 5792 5792 5792 5791 5791 5790 5790 5790 5791
5804 5803 5804 5805 5806 5806 5805 5805 5803 5803 5803 5803 5806 5807 5807 5808 5808 5808 5807 5805 5803 5802 5801 5803 5803 5802 5801 5801 5799 5797 5795 5793 5791 5790 5789 5789 5788 5788 5787 5786 5785 5785 5785 5785 5784 5784 5784 5784 5785
5794 5796 5797 5797 5798 5798 5798 5798 5797 5796 5796 5798 5800 5801 5801 5801 5802 5802 5801 5798 5797 5796 5796 5795 5796 5796 5796 5795 5793 5792 5790 5788 5786 5783 5782 5781 5781 5780 5779 5778 5778 5777 5777 5777 5777 5777 5777 5778 5778
5786 5788 5788 5789 5789 5790 5791 5789 5791 5791 5789 5792 5794 5795 5794 5794 5794 5795 5794 5792 5791 5791 5791 5790 5790 5789 5788 5788 5787 5786 5784 5782 5781 5779 5776 5773 5772 5772 5772 5771 5769 5769 5769 5769 5768 5769 5769 5770 5771
5778 5781 5782 5784 5783 5783 5783 5784 5788 5781 5784 5786 5787 5788 5788 5788 5787 5787 5787 5786 5785 5785 5784 5783 5783 5782 5782 5781 5779 5778 5776 5774 5773 5771 5769 5767 5765 5763 5763 5763 5761 5760 5760 5759 5759 5759 5760 5762 5762
5773 5775 5777 5778 5776 5777 5778 5782 5780 5776 5775 5777 5781 5781 5782 5783 5782 5781 5779 5778 5778 5778 5778 5778 5777 5776 5775 5773 5771 5769 5767 5765 5763 5762 5759 5757 5755 5754 5754 5753 5752 5751 5751 5750 5749 5749 5750 5752 5754
5768 5767 5769 5769 5769 5770 5773 5776 5772 5770 5770 5771 5773 5773 5774 5775 5776 5775 5774 5773 5773 5772 5772 5771 5770 5769 5767 5766 5763 5761 5758 5756 5754 5753 5750 5748 5745 5743 5742 5741 5740 5740 5741 5740 5740 5739 5739 5741 5744
5758 5757 5761 5765 5765 5763 5766 5770 5767 5765 5765 5765 5767 5768 5768 5770 5770 5768 5767 5767 5766 5766 5765 5764 5762 5761 5760 5758 5755 5752 5749 5747 5745 5742 5739 5737 5734 5732 5729 5727 5726 5725 5727 5728 5727 5728 5729 5729 5732
5756 5754 5755 5759 5758 5758 5759 5761 5761 5761 5760 5760 5761 5761 5762 5764 5764 5763 5762 5760 5760 5759 5756 5755 5754 5752 5750 5747 5746 5743 5740 5737 5733 5731 5727 5724 5721 5719 5717 5712 5710 5707 5706 5709 5711 5712 5715 5717 5720
5751 5751 5750 5750 5749 5749 5753 5754 5753 5754 5755 5755 5754 5755 5756 5757 5758 5758 5755 5753 5753 5750 5747 5747 5744 5740 5738 5736 5734 5733 5731 5728 5725 5721 5716 5711 5706 5701 5698 5693 5689 5685 5685 5685 5689 5693 5697 5700 5706
5743 5744 5746 5744 5741 5741 5744 5746 5746 5748 5748 5747 5747 5749 5751 5751 5751 5751 5749 5746 5745 5742 5740 5738 5735 5733 5730 5726 5724 5721 5718 5715 5712 5708 5703 5697 5693 5687 5680 5672 5664 5659 5659 5660 5662 5666 5674 5682 5687
5734 5735 5735 5736 5736 5737 5735 5736 5739 5739 5740 5741 5743 5743 5742 5742 5742 5742 5741 5739 5737 5733 5731 5727 5724 5721 5719 5717 5713 5710 5707 5704 5700 5695 5690 5683 5676 5670 5662 5651 5644 5642 5641 5642 5644 5643 5650 5659 5668
5727 5726 5725 5726 5728 5729 5729 5727 5732 5732 5733 5736 5736 5734 5733 5733 5732 5732 5731 5730 5726 5722 5719 5716 5714 5711 5709 5706 5701 5697 5693 5690 5686 5681 5675 5670 5663 5653 5642 5635 5631 5629 5627 5626 5628 5630 5631 5637 5647
5716 5715 5716 5716 5717 5718 5721 5719 5727 5722 5724 5724 5725 5726 5725 5724 5723 5721 5720 5717 5715 5712 5710 5707 5704 5701 5697 5693 5688 5684 5680 5676 5672 5668 5663 5658 5651 5640 5627 5621 5617 5616 5616 5615 5614 5615 5617 5619 5627
5706 5706 5706 5706 5704 5709 5711 5710 5717 5711 5713 5713 5713 5714 5714 5713 5711 5709 5708 5706 5704 5702 5699 5696 5692 5687 5684 5680 5675 5671 5667 5662 5658 5655 5651 5647 5638 5628 5615 5608 5605 5603 5601 5599 5598 5600 5603 5603 5607
5692 5693 5693 5690 5693 5698 5698 5698 5704 5704 5703 5703 5702 5702 5702 5702 5700 5699 5696 5694 5693 5690 5687 5682 5678 5673 5671 5667 5663 5658 5654 5650 5646 5642 5638 5632 5623 5615 5605 5596 5593 5589 5585 5582 5579 5578 5580 5582 5587
5682 5679 5685 5680 5681 5681 5684 5689 5693 5695 5695 5693 5691 5690 5689 5689 5688 5686 5684 5682 5680 5677 5673 5669 5664 5661 5659 5656 5651 5646 5641 5637 5634 5630 5625 5618 5610 5603 5592 5585 5581 5576 5568 5561 5554 5551 5550 5552 5559
5667 5671 5669 5667 5667 5668 5674 5679 5681 5684 5682 5680 5679 5678 5679 5678 5676 5674 5672 5669 5667 5664 5660 5656 5652 5650 5648 5643 5638 5634 5630 5625 5621 5617 5612 5605 5598 5591 5582 5574 5567 5561 5553 5543 5535 5528 5521 5515 5522
5657 5656 5656 5657 5657 5657 5661 5666 5669 5669 5668 5668 5668 5668 5667 5666 5664 5662 5659 5656 5653 5649 5647 5643 5640 5638 5634 5630 5625 5622 5617 5613 5609 5604 5599 5594 5586 5579 5570 5561 5554 5548 5537 5529 5518 5510 5504 5498 5501
5640 5644 5644 5643 5646 5646 5645 5656 5658 5657 5657 5656 5655 5654 5653 5652 5650 5648 5645 5642 5640 5637 5634 5631 5628 5625 5621 5617 5613 5609 5605 5602 5597 5591 5586 5581 5574 5566 5558 5549 5541 5533 5526 5516 5507 5497 5492 5491 5495